CYGFM03

Last updated on Tue Sep 15 2026 00:02:49 GMT+0000 (Coordinated Universal Time)

1 41891U 16078H 26257.63588696 .00030191 00000+0 29731-3 0 9996 2 41891 34.9407 353.9017 0003936 321.6201 38.4245 15.64912428542971
UTC large
Height (km)
Speed (km/s)
/
Latitude / Longitude
Inclination (degrees)
Orbital Period (minutes)
Azimuth
Elevation
Range (km)
Doppler Factor

Next 0 passes for location: London (51.5072 / 0.1276)

No passes found over London.
CYGFM03